Location: Unspecified
(0.0000°N, 0.0000°E)
Time: 17:38:10
(UTC+00:00)

Hubble Space Telescope - Pass Details

Date: 22 March 2019
Orbit: 537 x 540 km, 28.5° (Epoch: 23 May)

Event Time Altitude Azimuth Distance (km) Brightness Sun altitude
Rises 18:51:11 0° 280° (W) 2,672 6.3 -11.1°
Reaches altitude 10° 18:55:11 10° 318° (NW) 1,780 4.0 -12.1°
Maximum altitude 18:56:14 11° 333° (NNW) 1,728 3.7 -12.3°
Drops below altitude 10° 18:57:17 10° 348° (NNW) 1,779 3.6 -12.6°
Sets 19:01:17 0° 26° (NNE) 2,668 4.1 -13.6°
